Home > Weather > Ennepetal > Past weeks

Flag for Germany Past Weather in Ennepetal, North Rhine-Westphalia, Germany — Yesterday and Last 2 Weeks

Now
64 °F

Passing clouds.


Feels Like: 64 °F
Forecast: 53 / 70 °F
Wind: 7 mph from Northeast

Location: Dortmund / Wickede

Current Time: May 27, 2016 at 8:29:29 PM

Latest Report: May 27, 2016 at 7:50 PM


Visibility: N/A

Pressure: 29.98 "Hg

Humidity: 68%

Dew Point: 54 °F

Location of EnnepetalLocation

Past Weather in Ennepetal — Graph

°F

Ennepetal Temperature Yesterday

Maximum temperature yesterday: 68 °F (at 3:50 PM)
Minimum temperature yesterday: 46 °F (at 5:20 AM)
Average temperature yesterday: 61 °F

High & Low Weather Summary for the Past Weeks

 TemperatureHumidityPressure
High73 °F (May 21, 5:50 PM)94% (May 23, 6:50 PM)30.12 "Hg (May 23, 6:50 PM)
Low39 °F (May 15, 5:20 AM)30% (May 13, 3:50 PM)29.50 "Hg (May 12, 6:20 PM)
Average56 °F64%29.93 "Hg
* Reported May 12 6:20 PM — May 27 6:50 PM, Ennepetal, Weather by CustomWeather, © 2016

Note: Actual official high and low records may vary slightly from our data, if they occured in-between our weather recording intervals... More about our weather records

Advertising

Ennepetal Weather History for the Previous 24 Hours

Scroll right to see more
 ConditionsComfort  
Time TempWeatherWind HumidityBarometerVisibility
6:50 PM
Fri, May 27
68 °FPassing clouds.7 mph60%29.98 "HgN/A
6:20 PM68 °FPassing clouds.8 mph53%29.98 "HgN/A
5:50 PM68 °FPassing clouds.6 mph56%29.98 "HgN/A
5:20 PM68 °FPassing clouds.6 mph56%29.98 "HgN/A
4:50 PM66 °FSunny.3 mph64%29.98 "Hg10 mi
4:20 PM66 °FPassing clouds.5 mph68%29.98 "HgN/A
3:50 PM64 °FPassing clouds.5 mph73%30.01 "HgN/A
3:20 PM66 °FScattered clouds.5 mph64%30.01 "Hg6 mi
2:50 PM66 °FClear.7 mph64%30.01 "Hg6 mi
2:20 PM68 °FPassing clouds.7 mph56%30.01 "HgN/A
1:50 PM66 °FPassing clouds.6 mph64%30.01 "HgN/A
1:20 PM66 °FPassing clouds.5 mph60%30.01 "HgN/A
12:50 PM63 °FPassing clouds.5 mph68%30.01 "HgN/A
12:20 PM63 °FClear.5 mph68%30.01 "Hg6 mi
11:50 AM61 °FClear.3 mph72%30.01 "Hg6 mi
11:20 AM61 °FClear.2 mph72%30.01 "Hg6 mi
10:50 AM59 °FClear.3 mph72%30.01 "Hg5 mi
10:20 AM57 °FClear.5 mph72%30.01 "Hg4 mi
9:50 AM57 °FClear.5 mph77%30.01 "Hg4 mi
9:20 AM55 °FClear.5 mph82%30.01 "Hg4 mi
8:50 AM55 °FClear.3 mph82%30.01 "Hg3 mi
8:20 AM54 °FClear.5 mph82%30.01 "Hg4 mi
7:50 AM54 °FClear.3 mph88%30.01 "Hg4 mi
7:20 AM54 °FClear.5 mph88%30.01 "Hg3 mi
6:50 AM54 °FClear.2 mph82%30.01 "Hg4 mi
6:20 AM54 °FClear.3 mph82%30.01 "Hg4 mi
5:50 AM54 °FClear.3 mph82%30.01 "Hg4 mi
5:20 AM54 °FClear.3 mph82%30.01 "Hg4 mi
9:50 PM
Thu, May 26
59 °FSunny.5 mph63%30.01 "Hg10 mi
9:20 PM61 °FSunny.5 mph59%30.01 "Hg10 mi
8:50 PM61 °FPassing clouds.6 mph59%29.98 "HgN/A
8:20 PM63 °FPassing clouds.5 mph56%29.98 "HgN/A
Weather by CustomWeather, © 2016

See weather overviewHow to use our weather pages